Location: Harmony
(28.2000°N, 81.1500°W)
Time: 04:08:23
(UTC-04:00)

Cosmos 1544 Rocket - Pass Details

Date: 18 December 2017
Orbit: 605 x 631 km, 82.5° (Epoch: 20 July)

Event Time Altitude Azimuth Distance (km) Brightness Sun altitude
Rises 17:58:18 0° 348° (NNW) 2,866 6.9 -6.1°
Reaches altitude 10° 18:00:33 10° 344° (NNW) 1,957 6.1 -6.5°
Maximum altitude 18:04:46 53° 267° (W) 740 4.4 -7.4°
Drops below altitude 10° 18:08:57 10° 190° (S) 1,942 6.6 -8.2°
Sets 18:11:11 0° 186° (S) 2,842 7.4 -8.7°
